RH
60 62 65 70 73 74 71 72 71 66 66 64 64 65 63 64 65 68 70 70 69 69 70 71 73 75 76 76 76 82 85 83 84 84 82 81 79 77 79 83 83 81 78 77 74 74 76 74 72 72 71 70 68 65 63 61 59 59 59 59 58 57 56 57 57 52 47 45 43 42 40 39 39 40 41 40 38 37 39 41 41 41 41 44 45 47 47 47 49 47 48 50 51 51 50 49 52
53 53 56 63 68 70 66 67 67 61 63 63 63 64 64 64 65 68 71 70 67 66 70 72 74 74 74 74 75 81 82 81 82 81 82 78 75 75 79 82 80 80 78 74 73 74 74 68 65 67 70 71 66 60 59 59 58 57 56 56 54 54 54 52 51 48 44 42 40 40 40 40 41 42 42 40 40 40 41 42 41 41 42 44 46 48 48 47 48 46 46 47 48 52 52 51 54
53 53 54 58 62 63 61 63 61 56 58 60 61 63 66 66 67 69 70 67 63 64 68 71 72 73 73 72 75 78 77 77 77 78 81 77 73 75 77 79 78 79 79 77 76 73 72 67 60 63 67 69 65 58 56 56 56 54 54 53 51 50 49 48 45 43 42 42 40 40 41 42 43 43 43 43 43 42 41 42 43 43 43 45 47 46 45 46 47 46 46 45 45 49 52 51 53
52 55 58 58 57 56 55 53 50 49 53 56 58 61 65 67 68 67 65 63 62 64 65 66 68 72 73 72 74 75 73 74 77 79 80 77 74 73 72 74 75 75 75 75 74 70 71 68 59 58 60 60 59 56 55 55 54 52 51 51 49 48 47 45 43 42 43 43 43 43 43 43 43 43 44 45 44 42 42 44 44 45 46 47 47 44 44 46 46 46 48 47 46 47 50 52 53
49 52 56 57 55 52 47 40 38 38 45 51 53 59 62 64 65 63 64 63 63 63 62 63 65 69 72 71 72 73 72 74 78 80 79 79 77 73 71 71 73 73 70 69 69 67 67 65 57 56 57 55 54 54 55 54 52 50 49 49 48 47 46 45 44 45 45 46 46 44 44 44 44 44 44 44 43 42 42 45 46 47 48 49 48 46 46 47 48 48 48 49 50 50 52 55 56
50 49 50 52 51 50 46 38 34 30 35 44 46 53 58 59 61 60 62 64 64 61 60 62 62 64 68 71 74 73 72 75 78 79 78 80 79 74 71 71 72 71 69 68 68 66 61 58 54 54 55 54 53 52 53 52 49 49 48 47 47 47 46 46 46 47 48 48 47 46 46 45 44 44 43 42 42 42 44 47 49 51 50 50 50 49 48 49 49 49 50 51 53 54 56 57 59
54 52 49 52 47 45 44 36 36 32 31 37 39 44 50 54 58 58 60 63 62 59 59 60 60 62 66 70 73 73 74 75 76 77 78 79 78 71 67 68 70 68 66 66 67 65 57 53 52 53 54 54 54 52 51 50 48 48 47 46 46 46 45 45 45 46 48 48 47 46 45 44 43 43 42 42 42 43 46 48 53 58 56 54 51 50 50 50 50 50 52 53 52 53 56 57 58
57 55 50 53 45 38 39 33 35 33 30 34 35 38 43 49 55 56 58 60 58 57 57 57 60 64 66 70 72 73 74 75 76 77 77 77 73 68 65 65 66 67 65 64 64 61 54 50 50 51 52 51 52 51 50 49 48 47 47 46 44 45 43 42 43 44 46 47 47 46 44 44 43 43 43 42 43 45 47 51 58 62 59 54 51 52 53 51 51 53 54 53 51 52 54 54 55
58 57 51 53 45 37 37 34 33 32 31 33 35 38 40 44 51 54 54 56 54 52 53 54 60 64 66 70 72 71 73 75 75 75 75 74 68 64 64 63 63 65 63 61 60 57 54 51 49 48 48 49 49 50 50 48 47 46 46 45 44 43 42 43 44 45 47 48 47 47 45 45 45 45 45 45 48 49 51 58 61 61 58 53 54 57 55 54 57 57 57 55 53 54 54 52 52
59 57 54 50 45 40 36 35 34 32 32 33 36 39 39 42 47 51 51 51 50 49 49 52 58 63 65 70 71 70 70 72 73 72 72 70 64 61 61 61 62 63 61 58 58 56 53 50 49 47 45 46 47 49 48 47 47 46 46 45 44 43 44 45 47 48 49 50 49 48 48 48 49 49 50 51 55 55 58 62 59 60 60 57 59 61 59 60 61 60 59 57 55 54 53 53 53
61 56 53 49 46 44 38 37 34 31 32 33 35 35 37 40 42 48 50 48 46 45 46 48 54 57 61 66 71 70 68 67 67 66 66 64 60 58 59 58 60 62 58 54 54 53 50 47 45 44 44 44 47 47 45 46 46 47 47 46 45 45 46 47 48 50 50 50 50 51 50 51 53 53 55 56 58 59 60 60 59 63 65 64 65 64 64 66 62 60 60 57 56 53 53 54 53
62 56 53 49 45 44 40 39 33 30 33 33 32 31 31 34 37 43 46 45 42 41 42 48 51 53 55 60 67 69 67 63 61 61 59 57 55 57 57 56 56 58 57 53 52 52 53 50 45 43 43 46 46 44 43 44 45 46 48 48 47 47 47 48 48 50 51 51 52 53 54 54 55 56 58 58 59 61 61 59 60 65 65 65 66 64 66 67 63 61 59 58 58 56 58 57 52
59 55 53 48 42 42 41 40 34 30 31 30 29 25 25 30 34 37 41 42 41 39 40 46 50 51 52 56 64 67 66 61 58 57 54 54 55 56 56 55 54 55 55 52 51 50 51 49 48 46 43 45 45 41 43 43 44 46 48 49 49 48 48 48 48 50 51 52 53 55 57 56 56 57 59 60 60 59 59 57 57 62 63 62 62 61 64 65 65 63 60 61 60 57 59 58 54
57 55 52 46 40 40 40 40 36 33 30 27 27 22 22 28 31 33 37 40 42 39 37 41 43 46 50 52 58 62 62 59 57 55 53 54 55 55 54 54 53 53 52 51 51 47 44 45 45 46 44 42 39 39 42 42 44 45 47 49 49 49 49 49 51 51 51 52 53 55 57 58 57 57 58 59 58 56 55 55 56 61 63 63 62 63 65 65 67 66 63 65 64 59 58 59 59
56 52 49 43 38 38 39 40 39 37 31 27 26 22 23 25 24 30 36 38 38 34 32 35 36 42 46 46 49 52 56 57 56 56 53 53 52 52 52 53 53 51 51 51 52 47 45 46 42 43 42 39 37 43 46 42 43 45 47 49 49 49 49 51 52 52 52 52 53 55 56 58 58 57 57 57 55 55 54 55 58 61 62 65 65 66 69 68 69 68 63 63 65 62 61 63 62
54 50 49 45 39 39 39 40 42 40 34 29 27 23 26 23 22 31 34 32 31 28 30 32 33 39 41 42 44 44 50 54 56 56 54 51 50 49 51 53 52 48 49 50 49 47 46 45 42 40 39 40 42 47 48 42 41 43 44 47 47 48 50 52 52 52 52 51 53 55 56 58 58 57 56 55 55 56 57 58 59 59 60 63 64 65 67 67 66 66 63 62 63 61 59 59 56
52 49 51 49 43 42 38 39 44 42 37 35 30 25 28 24 22 28 27 26 27 27 30 30 32 36 37 41 42 41 46 53 55 55 53 51 48 48 50 52 50 46 47 48 44 43 45 43 41 42 41 42 45 47 48 44 42 41 42 45 46 47 49 50 52 51 51 51 53 55 56 57 58 56 54 54 55 56 57 57 56 55 57 59 59 59 60 61 60 60 62 61 58 54 51 50 49
51 50 51 51 46 44 40 40 44 42 39 39 34 29 30 26 23 24 22 25 26 26 29 29 31 35 38 42 41 40 44 50 52 52 51 50 47 46 48 49 48 46 46 46 42 42 47 45 39 41 44 44 44 45 47 45 45 44 43 45 46 47 48 49 50 50 51 51 52 54 54 54 55 55 54 54 55 54 54 53 51 52 53 52 52 52 50 51 51 51 52 51 48 46 44 47 50
48 49 50 50 45 43 41 42 44 42 41 42 38 34 35 29 23 23 23 25 24 24 28 29 31 34 40 42 41 40 41 45 47 48 48 49 46 44 46 48 47 46 46 47 45 43 46 49 43 42 45 46 47 47 47 45 45 46 44 44 46 48 49 50 50 50 50 51 52 53 54 55 55 55 55 55 55 53 51 50 49 49 49 48 47 46 44 43 44 43 43 41 41 42 45 48 52
45 48 50 48 43 42 41 42 43 42 40 42 41 38 38 31 23 25 27 25 22 23 26 28 31 34 39 42 42 42 39 40 42 43 45 47 47 45 46 47 46 45 45 47 48 43 42 46 45 44 44 45 49 48 47 47 44 44 46 46 47 49 49 49 50 50 50 50 51 53 56 58 56 56 54 53 54 53 52 50 49 48 46 46 46 45 43 41 41 41 41 41 44 46 48 49 49
44 48 51 47 42 41 40 40 40 39 39 40 40 40 41 33 23 25 27 25 23 24 24 25 28 32 37 41 43 43 40 38 38 39 41 45 46 46 48 49 48 47 47 49 48 43 40 42 42 42 41 40 46 46 45 48 45 44 46 46 47 51 51 50 50 49 49 48 49 53 56 57 55 57 55 53 55 54 53 51 50 49 47 47 44 46 46 43 43 44 43 43 46 46 46 44 42
44 47 49 45 41 41 38 37 37 36 36 38 41 41 41 36 29 25 24 29 30 27 25 22 25 29 33 38 40 42 40 38 37 36 37 42 44 45 48 49 50 51 51 50 48 44 41 42 42 42 41 39 42 44 45 46 44 45 47 46 47 51 52 52 50 50 51 48 49 53 55 54 53 55 55 52 54 52 51 50 49 48 48 48 44 45 46 43 44 44 42 42 42 43 43 39 36
45 46 45 42 39 39 36 34 34 34 35 39 42 40 37 39 36 28 25 30 29 25 23 21 24 27 30 35 38 40 39 37 37 36 36 40 43 44 46 48 49 51 52 50 49 47 42 43 43 41 41 40 40 42 44 43 42 45 48 47 48 50 51 51 51 52 54 50 48 50 51 51 51 52 52 51 52 50 49 47 47 47 46 47 44 43 43 41 41 40 40 40 38 39 40 37 36
46 47 44 41 38 37 34 31 31 33 37 39 38 35 35 39 37 29 25 26 21 19 22 22 24 26 28 31 35 38 38 37 36 35 36 38 42 44 46 48 48 48 51 52 50 47 43 44 43 40 39 40 42 43 43 44 45 45 47 47 46 50 51 52 53 53 53 49 45 45 45 48 49 49 49 49 48 45 44 43 42 43 43 43 40 39 40 39 40 39 39 38 38 38 37 37 37
45 47 43 39 36 34 31 30 30 33 37 36 33 34 37 41 39 31 25 24 20 20 22 23 26 26 27 29 32 35 37 37 36 35 36 36 40 44 46 48 46 46 48 50 49 45 42 41 40 40 39 38 41 42 41 44 45 46 47 45 45 47 49 52 55 52 51 49 45 42 39 43 47 46 46 46 46 44 45 43 40 38 37 38 38 39 40 39 39 40 39 39 38 37 36 36 35
39 42 42 35 31 29 26 27 30 32 33 31 32 34 35 37 38 35 30 25 22 21 22 24 26 26 27 28 30 33 35 35 35 35 36 37 39 43 46 46 44 44 46 47 46 44 40 38 37 38 39 37 38 40 42 44 46 48 47 46 46 47 46 49 52 51 48 47 47 43 36 38 43 45 48 48 47 45 43 42 42 40 36 36 37 37 39 39 40 41 39 39 38 36 35 34 33
35 36 36 31 29 27 23 26 31 32 31 29 31 33 32 31 33 39 36 28 25 23 22 23 25 25 27 28 29 31 33 33 33 34 35 36 37 39 42 43 43 44 46 46 44 43 40 39 38 38 39 38 37 40 43 45 46 46 45 44 44 45 43 44 49 50 47 45 47 47 40 37 39 42 47 49 44 38 35 35 39 43 42 42 40 37 38 37 38 39 38 37 36 35 35 35 34
33 32 33 31 30 27 22 26 30 30 30 29 32 34 33 29 32 40 35 28 28 25 23 23 24 24 25 27 28 30 33 32 32 33 33 34 34 34 36 38 42 44 45 43 41 41 41 41 41 42 43 40 37 38 40 42 43 41 40 40 40 42 43 42 45 47 46 47 47 46 43 40 40 41 41 41 38 35 33 32 34 38 45 49 42 37 39 36 35 37 37 36 35 37 38 37 34
32 32 33 31 29 27 25 26 27 28 30 32 37 39 35 30 33 36 31 29 28 26 25 23 23 25 24 26 28 30 32 32 32 32 31 32 33 34 34 36 40 42 43 42 41 39 39 41 42 42 42 38 34 35 36 37 39 38 37 38 37 39 41 40 40 40 42 47 46 42 43 42 41 41 37 35 35 35 33 29 30 33 42 49 40 37 40 36 35 36 37 38 38 40 39 35 32
31 31 33 32 30 28 26 26 26 27 29 31 38 41 36 32 34 33 28 28 27 24 24 21 22 25 25 25 27 30 32 31 33 33 33 33 33 33 33 35 37 38 41 42 39 36 36 37 38 38 36 35 34 33 34 34 35 34 35 37 36 37 39 38 37 38 40 43 44 41 42 41 37 36 38 38 36 33 31 29 30 33 42 48 44 47 49 38 34 36 37 38 38 39 37 34 32
29 30 32 31 31 29 24 22 25 28 28 29 36 39 35 33 33 31 28 28 27 24 22 20 20 23 26 27 26 29 30 31 33 34 34 35 35 34 33 34 35 36 38 38 37 35 35 33 34 36 34 34 34 32 31 32 33 32 33 34 35 37 40 39 38 41 43 42 42 42 42 39 36 38 40 41 40 33 30 33 34 40 49 48 45 53 52 39 36 36 36 37 38 36 33 31 30
29 31 31 29 31 33 25 21 24 28 28 30 38 41 38 35 32 31 29 29 29 27 23 21 20 21 25 28 28 28 29 30 32 34 35 35 35 35 35 35 34 35 36 36 37 35 35 34 32 33 34 33 33 32 31 31 32 30 31 33 35 38 40 45 45 43 43 43 44 44 41 39 39 42 42 41 42 36 32 34 37 43 49 45 41 46 45 38 37 36 35 36 35 29 26 27 25
31 31 33 30 31 33 26 21 24 27 29 32 39 42 41 38 35 35 32 30 32 30 27 24 23 23 24 27 29 28 28 29 31 31 32 34 34 34 35 35 34 35 36 35 35 34 31 31 29 30 34 34 32 34 32 31 31 28 31 38 39 37 36 43 46 42 40 40 43 44 38 36 37 38 39 38 38 37 35 38 44 44 43 45 43 41 39 35 35 35 33 33 30 23 22 24 23
30 29 33 34 32 32 28 25 24 27 31 34 38 42 42 40 37 38 34 31 32 32 30 27 25 25 24 25 26 26 27 28 29 29 30 31 32 33 33 34 34 35 35 34 32 31 28 27 28 27 31 35 35 37 34 32 32 28 32 38 37 38 38 40 44 43 43 40 39 40 36 33 32 35 38 38 37 39 39 43 51 45 40 49 50 41 35 32 32 29 26 27 25 20 21 22 21
28 28 31 35 34 32 31 29 26 28 33 34 37 40 42 42 41 40 36 33 32 32 32 29 27 26 26 25 23 23 25 27 28 28 28 29 30 32 32 32 33 33 33 31 29 29 26 24 26 25 26 34 38 36 35 36 33 27 33 36 33 39 40 38 42 41 41 43 40 40 39 36 36 39 42 42 39 39 42 49 53 46 42 48 47 37 33 32 28 23 20 20 19 18 19 20 20
29 31 31 34 33 31 31 31 29 31 35 34 35 38 41 45 46 41 36 34 33 33 33 31 28 26 28 27 24 22 22 24 26 26 28 28 30 31 31 31 30 31 32 30 28 27 25 23 25 25 26 33 39 39 37 36 33 29 33 37 33 36 36 35 39 37 35 40 42 40 40 41 41 42 44 47 43 39 42 49 52 50 48 45 41 34 30 28 23 20 19 16 17 19 19 19 19
33 35 34 33 32 30 30 32 33 34 35 35 34 37 40 44 46 42 36 36 36 35 34 33 29 26 26 27 27 24 22 22 24 25 26 26 29 30 30 30 29 31 32 30 27 25 24 26 29 30 30 33 38 40 36 32 33 32 33 37 34 36 38 33 35 39 36 36 39 39 39 41 40 43 49 49 46 44 44 44 45 49 51 45 38 30 24 22 19 17 18 16 18 21 22 22 21
35 38 36 33 33 33 32 34 37 36 36 38 38 38 40 41 44 45 41 38 38 37 37 35 33 29 26 25 26 26 25 24 23 24 25 25 26 27 28 28 29 30 30 28 26 24 25 26 31 34 32 33 34 37 34 30 33 31 31 39 38 38 39 34 35 40 38 36 39 41 41 41 42 49 52 45 42 46 42 36 37 47 53 43 30 24 22 22 20 17 17 20 21 21 22 23 22
32 36 35 34 34 36 37 35 37 39 38 42 42 39 40 39 39 43 43 40 39 40 40 39 36 33 30 27 25 26 27 27 26 25 26 26 25 25 26 27 28 28 29 28 25 24 25 25 29 31 31 32 31 33 34 33 35 32 31 39 40 40 39 36 40 43 40 41 45 48 47 42 42 44 41 36 38 38 32 31 36 44 46 34 21 20 22 23 21 18 17 20 23 24 23 24 23
26 30 32 34 35 37 39 35 37 40 40 43 44 41 40 37 36 41 42 40 41 43 43 41 38 35 32 29 26 25 27 28 29 29 30 29 28 27 26 26 28 27 28 29 27 26 25 25 28 29 29 29 28 32 32 34 41 35 32 38 40 43 43 38 44 46 41 44 50 51 45 33 30 32 31 34 35 30 30 37 37 34 29 22 18 19 21 23 23 21 21 22 24 25 25 26 27
23 26 27 31 35 36 37 37 37 38 40 44 44 40 39 36 36 40 41 40 40 41 43 42 39 37 35 33 31 29 30 31 32 32 32 32 31 30 28 27 27 27 28 28 29 30 26 27 30 30 30 28 29 33 29 32 40 34 32 39 40 42 44 41 44 44 38 42 47 46 42 31 24 28 31 34 33 29 33 36 29 22 19 17 18 20 22 22 21 22 22 23 25 25 25 27 28
22 25 23 26 35 36 36 37 37 37 39 41 40 41 40 35 34 37 40 41 40 39 42 43 41 40 38 38 37 35 35 37 37 36 34 32 32 32 31 30 27 26 28 28 29 31 30 31 32 31 31 30 31 34 31 31 33 31 34 37 35 35 37 36 37 36 32 36 38 36 38 33 25 26 27 29 31 30 29 26 21 19 18 17 18 19 19 18 19 22 20 20 23 24 24 26 26
21 24 23 26 32 35 37 38 38 39 37 36 38 42 43 38 33 34 36 39 41 39 40 43 42 41 40 39 39 38 39 40 40 41 38 34 33 33 33 33 32 28 27 28 29 31 32 33 33 31 31 29 28 30 32 30 28 32 33 28 27 29 30 30 28 28 30 34 36 33 32 29 25 26 25 24 26 26 23 21 20 21 21 21 21 17 17 20 22 23 19 18 23 24 23 26 26
20 22 25 26 29 32 36 37 40 40 36 38 40 41 43 39 35 36 36 39 41 37 36 39 39 40 41 41 40 40 40 41 41 42 42 38 34 33 34 35 35 33 31 29 28 29 32 35 34 31 30 27 24 25 28 27 28 33 29 24 27 27 28 30 27 28 31 32 35 32 27 26 24 25 24 24 25 23 23 23 24 26 25 25 23 20 21 25 23 22 22 20 21 22 23 25 27
20 23 26 28 29 32 33 34 39 40 38 41 43 43 44 39 36 39 40 42 42 34 30 33 34 36 39 42 43 42 41 41 41 42 42 41 38 36 36 36 35 35 35 31 27 28 31 33 32 32 34 32 26 24 25 25 30 32 27 26 28 26 28 31 31 33 31 29 31 29 27 28 26 26 27 27 27 26 26 29 31 32 30 28 27 26 27 27 21 20 25 26 25 25 24 24 26
21 23 27 29 31 33 33 34 37 38 40 42 41 42 43 38 34 36 39 41 40 32 28 29 31 34 37 41 44 44 43 42 41 41 42 42 41 39 39 39 38 37 36 33 29 29 28 27 26 28 32 32 27 24 24 25 27 27 27 28 27 27 30 31 33 35 31 29 30 30 31 30 29 29 29 30 31 32 33 35 36 36 35 34 32 30 29 27 21 22 27 27 27 27 27 25 26
21 22 26 30 32 33 34 35 36 38 41 43 41 41 41 37 31 31 35 36 34 30 27 28 31 33 35 38 41 42 44 44 43 42 41 41 42 41 40 40 40 39 36 34 32 31 28 23 21 22 23 27 27 24 23 23 24 24 26 27 27 28 29 30 32 32 31 32 31 32 33 32 31 30 31 34 36 38 39 39 38 39 39 37 36 34 31 28 25 27 28 24 23 26 27 27 26
22 21 25 29 31 34 35 36 38 41 44 42 37 38 40 37 29 27 29 31 31 28 26 28 31 33 33 34 36 39 43 46 46 44 41 41 41 39 38 37 38 39 38 36 35 32 29 27 25 22 20 22 24 24 23 24 24 25 26 27 28 28 29 32 33 31 32 34 34 34 34 34 34 33 34 39 40 41 42 42 42 42 42 40 40 37 33 29 28 29 28 24 23 24 23 23 24
24 21 25 28 31 35 36 37 39 41 42 38 32 34 37 34 29 27 26 28 31 29 26 28 30 33 34 33 33 37 40 44 47 47 44 42 41 39 36 35 36 38 40 39 37 33 32 32 32 29 26 24 25 25 26 26 27 28 27 28 29 29 30 34 35 35 35 36 35 36 37 38 38 39 40 43 44 45 45 46 46 44 43 43 42 41 37 33 31 30 30 28 26 25 24 24 24
24 21 24 27 31 37 36 36 39 39 37 34 32 35 36 31 26 26 25 25 28 29 28 28 29 31 34 34 34 37 40 42 45 47 46 43 42 41 38 36 36 36 38 39 38 35 35 36 35 34 31 29 29 29 28 28 28 28 28 30 32 33 34 35 36 36 35 36 37 38 42 45 45 44 45 47 49 50 50 51 51 49 45 43 42 42 42 39 34 32 32 32 30 29 29 29 28
22 20 22 24 28 35 36 34 36 37 34 33 33 35 34 29 24 23 24 24 26 28 28 28 28 29 32 34 35 38 41 42 43 44 45 43 42 42 41 40 38 36 36 38 38 36 37 40 39 36 34 32 32 31 30 29 29 30 31 34 36 38 39 38 36 36 35 37 39 41 44 47 50 52 52 53 54 55 57 57 57 55 52 49 45 44 45 44 38 34 34 34 32 32 31 28 28
22 21 23 23 23 29 33 32 33 33 31 32 34 34 30 25 22 23 24 24 26 27 27 27 27 29 32 33 33 36 38 39 39 40 42 43 42 42 42 41 38 36 35 37 38 36 37 43 43 38 35 34 33 32 31 32 32 34 35 37 41 43 43 41 38 38 39 41 44 45 46 47 51 56 57 58 56 54 54 56 57 58 58 56 54 51 50 49 43 38 36 35 34 33 32 29 29
23 24 23 21 21 25 32 33 33 34 34 32 33 35 30 23 20 22 25 26 27 28 28 27 26 28 31 30 29 31 33 35 37 37 39 40 41 40 40 41 39 37 35 35 38 37 36 40 42 38 34 33 33 33 34 34 34 36 38 40 43 45 46 44 42 41 42 44 46 47 48 48 50 54 57 59 57 51 46 47 52 57 60 61 60 58 56 54 50 43 37 35 34 34 34 32 32
24 25 21 22 25 27 32 34 33 35 36 33 33 36 36 28 20 21 24 25 26 26 27 27 25 26 28 27 28 29 30 33 37 39 40 40 39 39 40 42 41 39 36 34 36 39 36 38 40 38 34 33 33 33 33 33 34 36 39 40 42 46 47 46 46 46 47 48 50 50 52 52 51 55 59 60 57 52 45 43 48 55 60 63 64 64 62 60 57 49 40 37 35 34 35 35 35
21 24 23 26 28 27 31 34 34 35 34 31 31 35 38 32 23 23 24 23 24 25 25 26 26 25 26 26 27 29 31 33 35 38 40 41 39 39 40 42 41 39 37 34 35 39 38 38 38 37 35 32 31 32 31 30 32 34 36 38 42 46 48 48 49 51 51 53 54 56 57 57 57 60 61 60 58 56 52 49 50 55 60 62 65 66 65 64 63 56 47 41 38 36 35 36 36
17 24 27 27 26 28 32 32 31 33 34 32 31 32 35 31 23 23 26 24 26 28 26 26 27 25 25 26 26 29 31 32 34 37 40 41 40 40 41 43 42 40 37 36 38 40 39 38 37 36 35 31 29 32 33 31 31 33 35 37 41 46 49 51 52 53 54 55 56 57 59 62 65 68 66 64 64 64 61 58 59 63 64 64 66 68 68 66 65 63 56 47 42 41 40 40 39
15 22 25 26 27 30 33 32 29 31 33 34 32 30 31 30 22 19 23 25 25 28 30 31 30 26 25 24 25 27 30 33 35 36 39 40 40 40 42 44 43 40 37 38 41 42 40 39 37 35 33 32 31 32 33 31 31 34 36 38 42 47 51 53 54 55 57 59 57 56 61 68 73 75 73 68 67 68 66 65 68 70 69 67 65 65 68 66 62 62 61 56 50 47 46 46 44
13 18 21 26 30 30 31 33 32 32 32 30 30 31 30 30 27 20 20 24 23 24 27 29 30 29 27 24 23 26 30 33 34 35 36 38 40 41 42 44 43 39 37 38 39 40 38 36 37 37 34 33 34 35 33 32 35 38 37 39 42 45 49 53 55 57 59 60 58 58 65 74 77 77 74 69 67 68 69 71 73 72 70 67 64 62 65 68 66 63 63 62 60 55 51 50 49